Погода в Надыме

Погода в Надыме : погода сейчас, прогноз погоды и архив. Всё, что Вы хотите узнать о погоде в Надыме!

Поиск расширенной информации на нашем сайте:

Другие новости

Новости СМИ2

Главная страница сайта

Новости сайта

03.07.2017

Напоминаем, что на нашем специализированном сайте Метеоцентр.Азия вы можете получить высокодетализированные автоматические прогнозы погоды по пунктам России, СНГ и мира в авиационном формате (включающие направление и скорость ветра, видимость, явления погоды, количество и форму облачности, нижнюю и верхнюю границу облачности).

Рекомендуем: полезная сауна турецкая цена любовная

Погода в Надыме - сегодня

Время (UTC), дата Ветер
(°,м/с) 
Видим.   Явления Облачность Т
(°С)
Тd
(°С)
f(%) Тe
(°С)
Pmin
(гПа)
dP
(гПа)
Po
(мм)
O2
(г/м3)
Тmin Tmax R s Состояние
почвы
21 21.11.17 010 (С) 10 км  в посл. час снег [диам. изморози 1 мм]  10/10 200 м 
[St]
-12.2 -12.5 98 -12  1021.8  2.5  765  324           
00 22.11.17 010 (С) 4000 м  слаб. снег [диам. изморози 0 мм]  10/6 100 м средняя 
[Frnb|Ac und]
-12.5 -12.6 99 -15  1022.8  766  325           
03 22.11.17 040 (СВ) 4000 м  слаб. снег [диам. изморози 0 мм]  10/10 200 м 
[Frnb]
-12.3 -13 95 -12  1023.7  0.9  766  325  -13    0.3  25  равномерный
сухой снег
100% 
06 22.11.17 080 (В) 4000 м  слаб. снег  10/10 300 м 
[Sc]
-12.2 -12.4 98 -14  1023.9  0.3  767  325           
09 22.11.17 040 (СВ) 10 км  слаб. снег  10/10 300 м 
[Sc]
-12.1 -12.3 98 -12  1024.6  0.7  767  325           
12 22.11.17 060 (СВ) 4000 м  слаб. снег  10/10 300 м 
[Sc]
-12.4 -12.7 98 -14  1024.4  -0.3  767  325           
15 22.11.17 050 (СВ) 4000 м  слаб. снег  10/10 1000 м 
[Sc]
-12.9 -13.3 97 -13  1023.8  -0.6  766  325    -12  0.7     
18 22.11.17 030 (СВ) 4000 м  слаб. снег  10/10 600 м 
[Sc]
-13.9 -14.5 95 -16  1023.8  766  327           
21 22.11.17 030 (СВ) 4000 м  слаб. снег  10/5 600 м средняя 
[Sc|As op]
-14.4 -14.9 96 -14  1023.3  -0.5  766  327           
00 23.11.17 030 (СВ) 4000 м  слаб. снег  10/10 300 м 
[Sc]
-14.3 -14.8 96 -14  1023  -0.3  766  327           
03 23.11.17 020 (С) 2000 м  снег  10/10 300 м 
[Sc]
-13.9 -14.4 96 -16  1023.1  0.1  766  326  -15    30  равномерный
сухой снег
100% 
06 23.11.17 040 (СВ) 4000 м  слаб. снег  10/0 средняя 
[As op]
-12.9 -13.3 97 -13  1022.7  -0.3  766  325           
09 23.11.17 060 (СВ) 10 км  слаб. снег  10/10 300 м 
[Frnb]
-12.5 -13 96 -16  1022.4  -0.4  765  324           
12 23.11.17 070 (В) 2000 м  слаб. снег  10/10 300 м 
[Frnb]
-13.4 -14.1 94 -17  1021.4  -1  765  325           
15 23.11.17 080 (В) 2000 м  снег  10/10 300 м 
[Frnb]
-13.5 -12.9 100 -17  1019.8  -1.6  763  325    -12.3     
18 23.11.17 090 (В) 1000 м  снег  10/10 200 м 
[Ns]
-13.9 -14.3 97 -18  1017.9  -1.8  762  325           
21 23.11.17 090 (В) 2000 м  снег  10/10 300 м 
[Ns]
-13.3 -13.7 97 -15  1015.9  -2  761  323           
00 24.11.17 090 (В) 2000 м  снег  10/10 300 м 
[Ns]
-12.6 -12.9 98 -16  1012.1  -3.8  758  321           
03 24.11.17 100 (В) 33  4000 м  слаб. снег  10/10 300 м 
[Ns]
-11.5 -11.7 98 -24  1008.8  -3.3  755  319  -13.9    33  равномерный
сухой снег
100% 
06 24.11.17 100 (В) 4000 м  слаб. снег  10/0 средняя 
[As op]
-10.5 -10.6 99 -14  1004.4  -4.4  752  316           
09 24.11.17 110 (В) 4000 м  слаб. снег  10/10 300 м 
[Ns]
-9 -9 100 -11  999.7  -4.6  748  313           
12 24.11.17 240 (ЮЗ) 4-10{10}  4000 м  слаб. ливневой снег  10/10 300 м кучево-дожд. 
[Cb cap]
-9.5 -9.6 99 -13  997.9  -1.8  747  313           
15 24.11.17 240 (ЮЗ) 3-11{12}  4000 м  слаб. ливневой снег  10/10 300 м кучево-дожд. 
[Cb cap]
-14.6 -15.2 95 -18  999.5  1.6  748  320    -7.1     
18 24.11.17 240 (ЮЗ) 3{12}  2000 м  слаб. ливневой снег  10/10 300 м кучево-дожд. 
[Cb cap]
-16 -16.6 95 -20  1000  0.4  749  322           
21 24.11.17 260 (З) 6{12}  2000 м  слаб. ливневой снег  10/10 300 м кучево-дожд. 
[Cb cap]
-17.1 -18 93 -24  1000.7  0.7  749  323           
Время (UTC), дата Ветер
(°,м/с) 
Видим.   Явления Облачность Т
(°С)
Тd
(°С)
f(%) Тe
(°С)
Pmin
(гПа)
dP
(гПа)
Po
(мм)
O2
(г/м3)
Тmin Tmax R s Состояние
почвы

Для получения пояснительной информации подведите курсор к названию столбца.

ПОГОДА в Надыме - архив

Всё, что Вы хотите узнать о погоде в Надыме - удобно и подробно!

Выберите нужную дату (начиная с 1 января 2015* года) и нажмите кнопку "Найти".
Будут отображены архивные сводки погоды по пункту Надым, начиная с указанной даты.


Отображать данные в формате CSV (для использования в таблицах Excel)


Внимание! Наш архив погоды предназначен исключительно для личного некоммерческого использования в познавательных целях. Если Вам необходимы официальные справки о состоянии погоды (для производственных, юридических, коммерческих и т.п. целей), обращайтесь в органы Росгидромета.

*Примечание: данная дата относится к архиву по метеостанциям СССР (Россия, СНГ, Балтия).
Архив по метеостанциям Зарубежной Европы и Азии (кроме Китая) хранится 10 дней, по другим регионам земного шара (Китай, Африка, Америка, Австралия, Океания) - 1 день.

Надым - район местоположения метеостанции


Название, широта, долгота, высота метеостанции:
Надым 65.6°ш. 72.7°д. 12 м над ур. моря [Российская Федерация]

Дополнительная информация

В oтличие oт бoльшинства пoгoдных сайтoв мы публикуем пoдрoбную метеoинфoрмацию в детальнoм прoфессиoнальнoм фoрмате.

Характеристики температуры и влажнoсти вoздуха измеряются на высoте 2 м в тени вдали oт зданий и деревьев.
Скoрoсть ветра измеряется на высoте 10 м (на урoвне рoста челoвека скoрoсть ветра ниже в 1.5-2 раза). Если метеoстанция нахoдится в гoрoде или в лесу, тo скoрoсть ветра занижена на 2-4 м/с пo сравнению с oткрытым местoм. Скoрoсть ветра над акватoриями крупных рек и oзёр, а также на вершинах хoлмoв на 2-5 м/с выше, чем в oбычных услoвиях.
Атмoсфернoе давление в разных тoчках местнoсти мoжет значительнo oтличаться oт давления на метеoстанции, в зависимoсти oт услoвий рельефа (при пoдъёме на 10 м давление пoнижается примернo на 1 мм рт.ст.).